Home > Weather > Brønnøysund > Past weeks

Flag for Norway Past Weather in Brønnøysund, Norway — Yesterday and Last 2 Weeks

Now
54 °F

Sunny.


Feels Like: 50 °F
Forecast: 50 / 58 °F
Wind: 10 mph from North

Location: Bronnoysund / Bronnoy

Current Time: Jun 24, 2016 at 10:35:18 PM

Latest Report: Jun 24, 2016 at 9:50 PM


Visibility: 10 mi

Pressure: 29.95 "Hg

Humidity: 82%

Dew Point: 48 °F

Location of BrønnøysundLocation

Past Weather in Brønnøysund — Graph

°F

Brønnøysund Temperature Yesterday

Maximum temperature yesterday: 72 °F (at 10:50 AM)
Minimum temperature yesterday: 50 °F (at 12:20 AM)
Average temperature yesterday: 59 °F

High & Low Weather Summary for the Past Weeks

 TemperatureHumidityPressure
High72 °F (Jun 23, 10:50 AM)100% (Jun 11, 2:20 AM)30.12 "Hg (Jun 11, 2:20 AM)
Low39 °F (Jun 11, 3:20 AM)43% (Jun 23, 11:20 AM)29.62 "Hg (Jun 21, 2:50 AM)
Average50 °F79%29.88 "Hg
* Reported Jun 9 8:20 PM — Jun 24 8:50 PM, Brønnøysund, Weather by CustomWeather, © 2016

Note: Actual official high and low records may vary slightly from our data, if they occured in-between our weather recording intervals... More about our weather records

Advertising

Brønnøysund Weather History for the Previous 24 Hours

Scroll right to see more
 ConditionsComfort  
Time TempWeatherWind HumidityBarometerVisibility
8:50 PM
Fri, Jun 24
55 °FSunny.12 mph77%29.98 "Hg10 mi
8:20 PM55 °FSunny.10 mph77%29.98 "Hg10 mi
7:50 PM55 °FSunny.10 mph77%29.98 "Hg10 mi
6:50 PM55 °FSunny.14 mph77%30.01 "Hg10 mi
6:20 PM55 °FSunny.15 mph77%30.01 "Hg10 mi
5:20 PM55 °FPassing clouds.15 mph77%30.01 "HgN/A
4:50 PM57 °FPassing clouds.15 mph72%30.04 "HgN/A
4:20 PM57 °FPassing clouds.16 mph77%30.04 "HgN/A
3:50 PM57 °FPassing clouds.10 mph72%30.04 "HgN/A
3:20 PM57 °FPassing clouds.14 mph77%30.04 "HgN/A
2:50 PM57 °FPassing clouds.14 mph77%30.07 "HgN/A
2:20 PM57 °FScattered clouds.14 mph77%30.07 "HgN/A
1:50 PM57 °FScattered clouds.14 mph77%30.07 "HgN/A
1:20 PM57 °FScattered clouds.16 mph77%30.07 "HgN/A
12:50 PM57 °FScattered clouds.12 mph77%30.07 "HgN/A
12:20 PM57 °FBroken clouds.10 mph77%30.07 "HgN/A
11:50 AM55 °FRain. Broken clouds.9 mph88%30.09 "HgN/A
11:20 AM55 °FRain. Broken clouds.9 mph82%30.09 "Hg5 mi
10:50 AM54 °FFog.9 mph88%30.09 "Hg3 mi
10:20 AM54 °FFog.9 mph94%30.09 "Hg1 mi
9:50 AM54 °FBroken clouds.7 mph94%30.09 "Hg2 mi
9:20 AM52 °FFog.8 mph94%30.09 "Hg2 mi
8:50 AM52 °FPartly sunny.6 mph94%30.09 "Hg4 mi
8:20 AM52 °FPartly sunny.5 mph94%30.09 "Hg6 mi
7:50 AM54 °FPartly sunny.3 mph94%30.09 "Hg5 mi
7:20 AM52 °FFog.2 mph94%30.09 "Hg2 mi
6:50 AM52 °FFog.2 mph100%30.09 "Hg1 mi
6:20 AM52 °FFog.5 mph94%30.09 "Hg1 mi
5:50 AM52 °FFog.5 mph94%30.09 "Hg1 mi
5:20 AM52 °FPartly sunny.6 mph94%30.12 "Hg2 mi
4:50 AM52 °FLow clouds.6 mph100%30.12 "HgN/A
4:20 AM52 °FOvercast.5 mph94%30.09 "HgN/A
3:50 AM52 °FLow clouds.5 mph94%30.09 "HgN/A
3:20 AM54 °FMostly cloudy.6 mph94%30.12 "HgN/A
2:50 AM54 °FBroken clouds.6 mph94%30.09 "HgN/A
2:20 AM54 °FCloudy.6 mph94%30.09 "HgN/A
1:50 AM52 °FPartly sunny.3 mph94%30.09 "HgN/A
1:20 AM54 °FLight rain. Overcast.2 mph94%30.09 "HgN/A
12:50 AM54 °FMostly cloudy.3 mph94%30.09 "HgN/A
12:20 AM52 °FOvercast.1 mph94%30.09 "HgN/A
11:50 PM
Thu, Jun 23
52 °FMostly cloudy.2 mph94%30.09 "HgN/A
11:20 PM54 °FMostly cloudy.2 mph88%30.09 "HgN/A
10:50 PM54 °FPartly sunny.1 mph88%30.09 "HgN/A
Weather by CustomWeather, © 2016

See weather overviewHow to use our weather pages